Location: USNO
(38.9242°N, 77.0663°W)
Time: 02:05:08
(UTC-04:00)

OTV 5 (USA 277) - Pass Details

Date: 14 October 2017
Orbit: 404 x 417 km, 43.0° (Epoch: 07 September)

Event Time Altitude Azimuth Distance (km) Brightness Sun altitude
Rises 19:32:34 0° 270° (W) 2,351 ? -12.8°
Reaches altitude 10° 19:34:45 10° 277° (W) 1,490 ? -13.2°
Maximum altitude 19:37:59 44° 351° (N) 588 ? -13.8°
Enters shadow 19:39:45 23° 53° (NE) 949 ? -14.2°
